星链-32103 (STARLINK-32103 )

导读

STARLINK-32103是美国太空探索技术公司(SpaceX)星链互联网卫星星座中的一员,于2024年5月8日发射入轨。星链项目旨在通过近地轨道卫星群,为全球提供高速互联网接入服务。该卫星加入星座后,进一步扩展了星链网络的覆盖范围与服务能力,推动全球互联基础设施建设。

Basic Information
目录编号:
59688
目录名称:
STARLINK-32103
国际标识:
2024-086G
轨道中心:
EARTH
卫星名称:
星链-32103
卫星全名:
星链-32103 (STARLINK-32103 )
卫星状态:
在轨 (已飞行850 天)
发射日期:
2024-05-08 UTC
国别 :
美国 (US)
星等 :
--
Orbit Information
数据来源 国际轨道数据 AOE轨道数据
星历时间 2026-09-05T08:58:30+0800
7小时前
查看轨道信息
2026-09-01T22:00:00+0800
3天前
查看轨道信息
半长轴 6861.178km 6861.235km
偏心率 0.0001265 0.0000954
轨道倾角 43.003° 43.005°
近地点辐角 270.028° 224.554°
升交点赤经 116.456° 135.986°
平近点角 90.042° 180.523°
近地点 482.173km 482.443km
远地点 483.909km 483.753km
周期 94.267分钟 94.268分钟
每日圈数 15.27583 15.275638
Detailed Information
固有亮度:
5
最大亮度:
1.5
卫星平台:
Starlink v2.0 mini
覆盖范围:
全球
运营商:
太空探索技术公司
运营商所在国:
美国
制造商(研发单位):
太空探索技术公司
制造商所在国:
美国
使用方式:
暂无
Satellite Introduction
星链(Starlink)计划是由太空探索技术公司(SpaceX)提出的一个巨型低轨卫星互联网星座项目,计划在2019年至2024年间在太空搭建由约1.2万颗卫星组成的“星链”网络,其中1584颗将部署在地球上空550千米处的近地轨道,并从2020年开始工作。该卫星仍在工作。
2D Orbit Map
3D Orbit Map
Orbit Altitude Analysis Chart
Orbit Inclination Analysis Chart
Orbit Comprehensive Analysis Chart
View Comprehensive Chart
Conjunction Data List
Event ID Objects TCA Miss Dist (km) Collision Risk Probability Collision Risk Index (CRI) Action
CDM_260907-142605-968806-301921
2026-09-07T
14:26:41+0000
0.940 km
远距离
1.81441E-5 中风险 0.6
CDM_260907-160005-968806-301921
2026-09-07T
16:00:50+0000
1.808 km
极远距离
2.155115E-6 低风险 0.42
CDM_260903-121004-943805-968821
2026-09-03T
12:10:06+0000
2.361 km
极远距离
5.477015E-7 极低风险 0.3